QPF
0.13 0.13 0.13 0.22 0.18 0.04 0.02 0.00 0.00 0.00 0.00 0.00 0.00 0.00 0.00 0.00 0.00 0.00 0.00 0.00 0.00 0.00 0.00 0.00 0.00 0.00 0.00 0.00 0.00 0.00 0.00 0.00 0.00 0.00 0.00 0.00 0.00 0.00 0.00 0.00 0.00 0.00 0.00
0.19 0.17 0.25 0.22 0.14 0.07 0.05 0.00 0.00 0.00 0.00 0.00 0.00 0.00 0.00 0.00 0.00 0.00 0.00 0.00 0.00 0.00 0.00 0.00 0.00 0.00 0.00 0.00 0.00 0.00 0.00 0.00 0.00 0.00 0.00 0.00 0.00 0.00 0.00 0.00 0.00 0.00 0.00
0.30 0.31 0.40 0.20 0.13 0.10 0.07 0.00 0.00 0.00 0.00 0.00 0.00 0.00 0.00 0.00 0.00 0.00 0.00 0.00 0.00 0.00 0.00 0.00 0.00 0.00 0.00 0.00 0.00 0.00 0.00 0.00 0.00 0.00 0.00 0.00 0.00 0.00 0.00 0.00 0.00 0.00 0.00
0.28 0.26 0.26 0.29 0.27 0.16 0.14 0.08 0.00 0.00 0.00 0.00 0.00 0.00 0.00 0.00 0.00 0.00 0.00 0.00 0.00 0.00 0.00 0.00 0.00 0.00 0.00 0.00 0.00 0.00 0.00 0.00 0.00 0.00 0.00 0.00 0.00 0.00 0.00 0.00 0.00 0.00 0.00
0.06 0.08 0.12 0.20 0.29 0.11 0.15 0.10 0.08 0.03 0.02 0.00 0.02 0.01 0.00 0.00 0.00 0.00 0.00 0.00 0.00 0.00 0.00 0.00 0.00 0.00 0.00 0.00 0.00 0.00 0.00 0.00 0.00 0.00 0.00 0.00 0.00 0.00 0.00 0.00 0.00 0.00 0.00
0.03 0.13 0.21 0.26 0.28 0.23 0.13 0.13 0.15 0.03 0.07 0.15 0.10 0.02 0.00 0.00 0.00 0.00 0.00 0.00 0.00 0.00 0.00 0.00 0.00 0.00 0.00 0.00 0.00 0.00 0.00 0.00 0.00 0.00 0.00 0.00 0.00 0.00 0.00 0.00 0.00 0.00 0.00
0.02 0.02 0.10 0.13 0.14 0.16 0.16 0.12 0.07 0.05 0.09 0.06 0.02 0.00 0.00 0.00 0.00 0.00 0.00 0.00 0.00 0.00 0.00 0.00 0.00 0.00 0.00 0.00 0.00 0.00 0.00 0.00 0.00 0.00 0.00 0.00 0.00 0.00 0.00 0.00 0.00 0.00 0.00
0.02 0.03 0.04 0.07 0.07 0.13 0.13 0.06 0.04 0.03 0.02 0.01 0.01 0.00 0.00 0.00 0.00 0.00 0.00 0.00 0.00 0.00 0.00 0.00 0.00 0.00 0.00 0.00 0.00 0.00 0.00 0.00 0.00 0.00 0.00 0.00 0.00 0.00 0.00 0.00 0.00 0.00 0.00
0.00 0.00 0.00 0.01 0.04 0.03 0.04 0.01 0.01 0.00 0.00 0.00 0.00 0.00 0.00 0.00 0.00 0.00 0.00 0.00 0.00 0.00 0.00 0.00 0.00 0.00 0.00 0.00 0.00 0.00 0.00 0.00 0.00 0.00 0.00 0.00 0.00 0.00 0.00 0.00 0.00 0.00 0.00
0.00 0.00 0.00 0.00 0.00 0.00 0.00 0.00 0.01 0.01 0.01 0.00 0.00 0.00 0.00 0.00 0.00 0.00 0.00 0.00 0.00 0.00 0.00 0.00 0.00 0.00 0.00 0.00 0.00 0.00 0.00 0.00 0.00 0.00 0.00 0.00 0.00 0.00 0.00 0.00 0.00 0.00 0.00
0.00 0.00 0.00 0.00 0.00 0.00 0.01 0.00 0.00 0.00 0.00 0.00 0.00 0.00 0.00 0.00 0.00 0.00 0.00 0.00 0.00 0.00 0.00 0.00 0.00 0.00 0.00 0.00 0.00 0.00 0.00 0.00 0.00 0.00 0.00 0.00 0.00 0.00 0.00 0.00 0.00 0.00 0.00
0.00 0.00 0.00 0.00 0.00 0.01 0.01 0.00 0.00 0.00 0.00 0.00 0.00 0.00 0.00 0.00 0.00 0.00 0.00 0.00 0.00 0.00 0.00 0.00 0.00 0.00 0.00 0.00 0.00 0.00 0.00 0.00 0.00 0.00 0.00 0.00 0.00 0.00 0.00 0.00 0.00 0.00 0.00
0.00 0.00 0.00 0.00 0.01 0.01 0.01 0.00 0.00 0.00 0.00 0.00 0.00 0.00 0.00 0.00 0.00 0.00 0.00 0.00 0.00 0.00 0.00 0.00 0.00 0.00 0.00 0.00 0.00 0.00 0.00 0.00 0.00 0.00 0.00 0.00 0.00 0.00 0.00 0.00 0.00 0.01 0.00
0.00 0.00 0.00 0.00 0.00 0.00 0.00 0.00 0.00 0.00 0.00 0.00 0.00 0.00 0.00 0.00 0.00 0.00 0.00 0.00 0.00 0.00 0.00 0.00 0.00 0.00 0.00 0.00 0.00 0.00 0.00 0.00 0.00 0.00 0.00 0.00 0.00 0.00 0.00 0.00 0.00 0.00 0.00
0.00 0.00 0.00 0.00 0.00 0.00 0.00 0.00 0.00 0.00 0.00 0.00 0.00 0.00 0.00 0.00 0.00 0.00 0.00 0.00 0.00 0.00 0.00 0.00 0.00 0.00 0.00 0.00 0.00 0.00 0.00 0.00 0.00 0.00 0.00 0.00 0.00 0.00 0.00 0.00 0.00 0.00 0.00
0.00 0.00 0.00 0.00 0.00 0.00 0.00 0.00 0.00 0.00 0.00 0.00 0.00 0.00 0.00 0.00 0.00 0.00 0.00 0.00 0.00 0.00 0.00 0.00 0.00 0.00 0.00 0.00 0.00 0.00 0.00 0.00 0.00 0.00 0.00 0.00 0.00 0.00 0.00 0.00 0.00 0.00 0.00
0.00 0.00 0.00 0.00 0.00 0.00 0.00 0.00 0.00 0.00 0.00 0.00 0.00 0.00 0.00 0.00 0.00 0.00 0.00 0.00 0.00 0.00 0.00 0.00 0.00 0.00 0.00 0.00 0.00 0.00 0.00 0.01 0.02 0.02 0.01 0.00 0.00 0.00 0.00 0.00 0.00 0.00 0.00
0.00 0.00 0.00 0.00 0.00 0.00 0.00 0.00 0.00 0.00 0.00 0.00 0.00 0.00 0.00 0.00 0.00 0.00 0.00 0.00 0.00 0.00 0.00 0.00 0.00 0.00 0.00 0.00 0.00 0.00 0.00 0.00 0.04 0.06 0.05 0.03 0.01 0.01 0.01 0.00 0.00 0.00 0.00
0.00 0.00 0.00 0.00 0.00 0.00 0.00 0.00 0.00 0.00 0.00 0.00 0.00 0.00 0.00 0.00 0.00 0.00 0.00 0.00 0.00 0.00 0.00 0.00 0.00 0.00 0.00 0.00 0.00 0.00 0.00 0.01 0.02 0.02 0.03 0.02 0.01 0.02 0.02 0.01 0.00 0.00 0.00
0.00 0.00 0.00 0.00 0.00 0.00 0.00 0.00 0.00 0.00 0.00 0.00 0.00 0.00 0.00 0.00 0.00 0.00 0.00 0.00 0.00 0.00 0.00 0.00 0.00 0.00 0.00 0.00 0.00 0.00 0.00 0.02 0.03 0.06 0.06 0.03 0.02 0.01 0.00 0.00 0.00 0.00 0.00
0.05 0.01 0.00 0.00 0.00 0.00 0.00 0.00 0.00 0.00 0.00 0.00 0.00 0.00 0.00 0.00 0.00 0.00 0.00 0.00 0.00 0.00 0.00 0.00 0.00 0.00 0.00 0.00 0.00 0.00 0.01 0.01 0.03 0.06 0.05 0.03 0.03 0.02 0.01 0.00 0.00 0.00 0.00
0.09 0.03 0.02 0.01 0.00 0.00 0.00 0.00 0.00 0.00 0.00 0.00 0.00 0.00 0.00 0.00 0.00 0.00 0.00 0.00 0.00 0.00 0.00 0.00 0.00 0.00 0.00 0.01 0.03 0.06 0.08 0.11 0.11 0.10 0.11 0.11 0.09 0.05 0.03 0.02 0.01 0.00 0.00
0.07 0.05 0.05 0.06 0.02 0.00 0.00 0.00 0.00 0.00 0.00 0.00 0.00 0.00 0.00 0.00 0.00 0.00 0.00 0.00 0.00 0.00 0.01 0.00 0.00 0.01 0.01 0.00 0.03 0.09 0.07 0.07 0.06 0.07 0.15 0.12 0.07 0.04 0.04 0.03 0.01 0.01 0.00
0.05 0.03 0.02 0.04 0.02 0.00 0.00 0.01 0.04 0.05 0.04 0.02 0.01 0.00 0.00 0.00 0.00 0.00 0.00 0.00 0.00 0.00 0.02 0.02 0.00 0.00 0.01 0.02 0.06 0.07 0.02 0.01 0.03 0.08 0.18 0.16 0.10 0.07 0.05 0.04 0.01 0.00 0.00
0.05 0.02 0.00 0.00 0.00 0.00 0.01 0.04 0.03 0.01 0.01 0.00 0.00 0.00 0.00 0.00 0.00 0.00 0.00 0.00 0.00 0.00 0.01 0.02 0.01 0.01 0.00 0.03 0.04 0.03 0.02 0.03 0.05 0.09 0.11 0.10 0.08 0.06 0.04 0.02 0.02 0.01 0.00
0.01 0.01 0.00 0.00 0.00 0.00 0.02 0.00 0.00 0.00 0.00 0.00 0.00 0.00 0.00 0.01 0.00 0.00 0.00 0.00 0.00 0.01 0.02 0.03 0.02 0.02 0.03 0.02 0.03 0.02 0.01 0.01 0.02 0.03 0.03 0.04 0.04 0.03 0.02 0.01 0.01 0.00 0.00
MSLP
1009.27 1009.43 1010.11 1010.67 1011.38 1011.90 1012.13 1012.36 1013.24 1013.78 1014.87 1015.26 1015.46 1015.88 1015.54 1015.46 1016.09 1016.55 1016.77 1016.80 1017.09 1016.79 1016.90 1016.60 1016.82 1016.75 1016.89 1016.84 1016.87 1017.14 1017.65 1018.09 1018.71 1019.06 1018.99 1019.23 1019.59 1019.48 1019.56 1019.68 1019.89 1019.95 1020.02
1009.16 1009.35 1009.74 1010.52 1011.34 1011.80 1011.98 1012.67 1012.74 1013.32 1013.98 1014.54 1014.94 1015.48 1015.49 1015.75 1015.82 1015.93 1016.31 1016.51 1016.57 1016.98 1016.83 1016.81 1016.70 1016.71 1016.76 1016.95 1017.09 1017.45 1017.81 1018.08 1018.66 1019.36 1019.47 1019.51 1019.19 1019.19 1019.16 1019.80 1019.67 1019.48 1019.56
1008.98 1009.52 1009.68 1009.80 1009.72 1011.34 1012.13 1012.58 1012.54 1013.18 1013.64 1014.25 1014.60 1015.21 1015.35 1015.54 1015.39 1015.46 1015.66 1016.14 1016.37 1016.55 1016.88 1016.90 1016.63 1016.78 1017.21 1017.29 1017.50 1017.71 1017.87 1017.90 1018.30 1018.81 1019.31 1019.29 1019.07 1019.05 1019.11 1019.31 1019.62 1019.46 1019.17
1008.59 1008.92 1009.11 1009.60 1009.38 1010.61 1011.48 1012.84 1012.87 1013.35 1013.37 1013.88 1014.42 1014.65 1014.78 1015.32 1015.24 1015.15 1015.45 1015.60 1016.08 1016.37 1016.55 1016.80 1016.88 1016.99 1017.29 1017.32 1017.48 1017.64 1017.74 1017.99 1018.33 1018.75 1019.14 1019.21 1019.10 1018.96 1019.18 1019.57 1019.66 1019.29 1019.01
1008.80 1008.76 1008.89 1009.53 1010.16 1011.49 1011.84 1011.40 1012.35 1012.77 1013.21 1013.46 1013.98 1014.30 1014.59 1014.91 1015.12 1015.38 1015.21 1015.42 1015.83 1016.03 1016.18 1016.60 1016.87 1016.87 1017.08 1017.23 1017.53 1017.90 1018.01 1018.39 1018.53 1018.74 1019.14 1018.99 1019.04 1019.10 1019.24 1019.31 1019.83 1019.64 1019.31
1008.91 1009.00 1009.46 1009.93 1010.49 1010.91 1010.87 1011.13 1012.30 1012.95 1013.11 1013.46 1013.99 1014.20 1014.40 1014.71 1014.60 1015.09 1014.97 1015.28 1015.45 1015.81 1016.26 1016.44 1016.64 1016.82 1016.95 1017.16 1017.31 1017.40 1017.67 1018.31 1018.64 1018.92 1019.22 1019.38 1019.38 1019.23 1019.17 1019.57 1019.65 1019.87 1019.69
1009.35 1009.30 1009.59 1010.14 1010.38 1011.02 1010.10 1011.70 1012.50 1012.76 1012.89 1013.10 1013.39 1013.75 1014.01 1014.14 1014.25 1014.55 1014.80 1015.05 1015.35 1015.64 1015.92 1016.23 1016.38 1016.54 1016.65 1016.91 1017.09 1017.23 1017.41 1017.78 1018.04 1018.41 1018.85 1019.26 1019.23 1019.07 1019.10 1019.18 1019.38 1019.62 1019.62
1009.62 1009.63 1009.71 1010.31 1010.73 1011.02 1011.36 1011.88 1012.32 1012.48 1012.45 1012.76 1013.00 1013.42 1013.72 1013.84 1014.08 1014.44 1014.65 1015.03 1015.27 1015.57 1015.63 1015.85 1016.07 1016.18 1016.37 1016.53 1016.88 1017.21 1017.29 1017.37 1017.61 1018.04 1018.15 1018.11 1018.30 1018.30 1018.46 1018.55 1018.87 1019.08 1019.15
1009.87 1009.67 1009.79 1010.02 1010.71 1011.03 1011.29 1011.42 1011.72 1011.91 1012.17 1012.37 1012.73 1013.10 1013.40 1013.52 1013.94 1014.26 1014.54 1015.02 1015.32 1015.56 1015.53 1015.64 1015.69 1015.81 1015.97 1016.23 1016.69 1017.29 1017.34 1017.04 1016.92 1017.26 1017.35 1017.31 1017.34 1017.40 1017.70 1018.24 1018.77 1019.13 1019.29
1009.63 1009.72 1009.69 1009.96 1010.09 1010.55 1011.06 1011.21 1011.24 1011.46 1011.68 1012.13 1012.63 1012.97 1013.25 1013.78 1014.00 1014.16 1014.51 1014.97 1015.50 1015.57 1015.45 1015.37 1015.12 1015.15 1015.43 1015.78 1016.26 1016.87 1017.04 1016.91 1016.81 1016.85 1017.21 1017.30 1017.19 1017.15 1017.15 1017.59 1018.01 1018.59 1018.89
1009.18 1009.63 1009.92 1010.25 1010.56 1010.56 1010.67 1010.82 1011.06 1011.51 1011.70 1012.32 1012.78 1012.95 1013.16 1013.44 1013.82 1014.03 1014.35 1014.74 1015.10 1015.41 1015.46 1015.22 1014.84 1014.75 1014.94 1015.28 1015.59 1016.05 1016.06 1016.08 1016.41 1016.71 1016.98 1016.94 1016.73 1016.55 1016.48 1016.61 1016.79 1017.10 1017.35
1008.75 1009.46 1009.76 1010.02 1010.19 1010.41 1010.77 1011.09 1011.25 1011.43 1011.92 1012.32 1012.61 1012.98 1013.07 1013.18 1013.31 1013.60 1013.83 1014.14 1014.33 1014.76 1014.89 1014.86 1014.77 1014.45 1014.58 1014.92 1015.25 1015.30 1015.48 1015.90 1016.38 1016.69 1016.80 1016.66 1016.47 1016.15 1015.76 1015.71 1015.59 1015.59 1015.47
1008.43 1009.01 1009.34 1009.57 1009.79 1009.89 1010.33 1010.82 1011.11 1011.37 1011.76 1012.04 1012.33 1012.57 1012.60 1012.58 1012.81 1012.78 1013.11 1013.47 1013.76 1014.17 1014.01 1014.19 1014.39 1014.49 1014.44 1014.58 1014.51 1014.73 1015.25 1015.77 1016.14 1016.37 1016.18 1015.95 1015.68 1015.32 1015.07 1015.04 1014.70 1014.62 1014.84
1008.15 1008.69 1009.05 1009.25 1009.60 1009.88 1009.96 1010.30 1010.67 1010.99 1011.36 1011.61 1011.78 1011.93 1011.91 1012.08 1012.14 1012.19 1012.66 1013.07 1013.39 1013.76 1013.75 1013.82 1014.03 1014.13 1014.09 1014.20 1014.36 1014.59 1014.96 1015.19 1015.43 1015.55 1015.47 1015.11 1014.89 1014.93 1014.91 1014.77 1014.68 1014.48 1014.69
1007.84 1008.26 1008.63 1008.82 1009.23 1009.58 1009.68 1009.76 1009.99 1010.18 1010.29 1010.61 1010.76 1010.87 1011.03 1011.34 1011.17 1011.07 1011.52 1012.13 1012.55 1012.69 1013.13 1013.53 1013.69 1013.83 1013.92 1013.96 1013.99 1014.08 1014.27 1014.57 1014.81 1014.65 1014.72 1014.53 1014.44 1014.44 1014.42 1014.26 1014.33 1014.52 1014.72
1007.26 1007.64 1008.03 1008.42 1008.65 1008.91 1009.15 1009.35 1009.15 1009.10 1009.30 1009.54 1009.70 1009.82 1010.01 1010.04 1010.07 1010.38 1010.65 1010.95 1011.34 1011.89 1012.99 1013.14 1013.10 1013.09 1013.26 1013.33 1013.42 1013.44 1013.33 1013.33 1013.51 1013.59 1013.54 1013.41 1013.41 1013.42 1013.55 1013.66 1013.85 1014.20 1014.49
1006.46 1007.01 1007.45 1007.79 1007.97 1008.16 1008.24 1008.37 1008.68 1008.54 1008.78 1008.85 1008.88 1008.79 1009.31 1009.69 1009.94 1009.96 1010.12 1010.35 1010.73 1011.51 1011.96 1012.20 1012.33 1012.35 1012.19 1012.09 1012.20 1012.28 1012.28 1012.12 1011.90 1012.11 1012.37 1012.50 1012.51 1012.60 1012.91 1012.88 1013.09 1013.35 1013.75
1005.73 1006.04 1006.52 1006.85 1007.15 1007.23 1007.29 1007.30 1007.54 1007.93 1008.22 1008.18 1007.92 1008.33 1008.47 1008.81 1009.25 1009.65 1010.16 1010.75 1011.45 1011.37 1010.99 1010.98 1011.09 1011.10 1011.06 1010.92 1010.93 1011.00 1011.04 1011.09 1011.08 1011.23 1011.32 1011.36 1011.60 1011.73 1011.77 1011.93 1012.19 1012.53 1012.85
1004.88 1005.14 1005.41 1005.72 1005.92 1006.07 1006.27 1006.39 1006.60 1006.89 1007.20 1007.24 1007.19 1007.42 1007.35 1007.80 1008.63 1009.25 1009.81 1009.97 1010.22 1010.41 1010.41 1010.19 1009.80 1009.81 1009.80 1009.73 1009.72 1009.79 1009.94 1010.05 1010.10 1010.15 1009.71 1009.49 1010.04 1010.56 1010.62 1010.79 1010.96 1011.29 1011.66
1003.85 1004.16 1004.46 1004.70 1004.89 1004.96 1005.00 1005.19 1005.48 1005.73 1006.03 1006.26 1006.48 1006.53 1006.62 1007.89 1008.85 1009.07 1008.93 1008.78 1008.85 1008.80 1008.77 1008.69 1008.49 1008.55 1008.50 1008.52 1008.68 1008.88 1009.22 1009.44 1009.35 1009.25 1009.27 1009.33 1009.17 1009.14 1009.28 1009.58 1010.13 1010.38 1010.75
1003.22 1003.58 1003.78 1003.70 1003.77 1003.90 1004.08 1004.41 1004.48 1004.79 1004.98 1005.11 1005.27 1005.46 1005.84 1006.28 1006.50 1006.70 1006.86 1007.19 1007.09 1007.05 1006.94 1007.02 1007.19 1007.38 1007.14 1007.11 1007.47 1007.79 1008.07 1008.19 1008.17 1008.29 1008.25 1007.90 1007.96 1008.07 1008.34 1008.46 1008.55 1008.78 1009.28
1002.38 1002.95 1003.08 1003.64 1003.28 1003.38 1003.42 1003.25 1003.48 1003.54 1003.75 1004.10 1004.09 1004.25 1004.46 1004.93 1004.84 1004.98 1005.13 1005.17 1005.13 1005.28 1005.52 1005.65 1005.71 1005.87 1005.64 1005.83 1006.18 1006.59 1006.75 1006.61 1006.92 1007.33 1008.15 1008.11 1007.61 1007.64 1007.28 1007.21 1007.54 1007.65 1007.92
1002.14 1001.87 1002.07 1002.78 1002.51 1002.13 1002.00 1002.16 1002.45 1002.57 1002.87 1002.93 1003.06 1003.22 1003.41 1003.54 1003.73 1003.69 1003.72 1003.63 1003.66 1003.60 1003.79 1004.18 1004.31 1004.33 1004.52 1004.55 1004.48 1004.62 1005.22 1005.72 1006.02 1006.23 1006.69 1006.85 1007.10 1006.64 1006.41 1006.16 1005.97 1006.27 1006.31
1002.60 1001.38 1001.04 1001.41 1001.53 1001.04 1000.96 1001.16 1001.32 1001.83 1002.24 1002.35 1002.23 1002.11 1001.92 1002.08 1002.20 1002.18 1002.16 1002.18 1002.14 1002.11 1002.34 1002.62 1002.74 1002.61 1003.18 1003.33 1003.48 1003.94 1004.52 1004.80 1005.12 1005.49 1005.63 1005.22 1005.04 1004.98 1005.31 1004.64 1004.61 1004.39 1004.37
1000.48 1000.54 1000.00 999.94 999.88 999.81 1000.10 1000.48 1000.74 1000.88 1000.53 1000.47 1000.57 1000.46 1000.29 1000.38 1000.55 1000.64 1000.70 1000.67 1000.72 1000.89 1000.96 1001.06 1001.16 1001.27 1001.69 1002.22 1002.37 1002.78 1002.63 1003.08 1003.39 1003.40 1004.08 1003.94 1003.86 1003.63 1003.58 1003.84 1003.70 1003.69 1003.77
999.32 999.12 999.07 998.95 998.97 999.34 999.59 999.46 999.18 999.26 999.04 999.18 998.99 998.92 999.04 999.54 999.44 999.70 999.56 999.73 999.91 1000.35 1000.65 1000.99 1001.45 1001.31 1001.45 1000.96 1001.04 1001.01 1001.32 1001.05 1000.94 1000.66 1002.39 1003.06 1002.78 1002.68 1002.66 1002.90 1003.58 1003.52 1003.78
Thickness
5772 5771 5764 5761 5754 5751 5747 5745 5738 5734 5723 5715 5713 5706 5709 5710 5705 5700 5700 5702 5697 5699 5700 5702 5698 5700 5700 5702 5705 5704 5700 5696 5690 5691 5693 5689 5686 5686 5682 5680 5679 5679 5678
5763 5758 5757 5750 5743 5739 5742 5735 5736 5732 5725 5715 5709 5706 5705 5704 5706 5704 5700 5695 5696 5692 5695 5696 5699 5699 5699 5698 5698 5696 5693 5690 5685 5678 5679 5679 5681 5682 5682 5674 5674 5673 5673
5752 5748 5746 5740 5733 5733 5729 5729 5730 5726 5720 5713 5709 5703 5700 5700 5704 5704 5700 5694 5694 5693 5689 5691 5695 5695 5692 5692 5690 5689 5689 5689 5684 5680 5676 5677 5677 5676 5676 5673 5669 5668 5669
5746 5747 5746 5740 5739 5729 5724 5712 5715 5715 5717 5711 5706 5702 5702 5697 5698 5699 5695 5694 5690 5688 5688 5686 5687 5687 5684 5685 5684 5684 5683 5681 5678 5673 5668 5669 5669 5668 5667 5661 5662 5666 5666
5736 5739 5741 5731 5724 5713 5708 5712 5714 5712 5709 5707 5702 5697 5695 5692 5692 5687 5691 5690 5685 5685 5686 5683 5681 5682 5682 5680 5676 5673 5672 5669 5666 5665 5662 5664 5663 5662 5660 5661 5655 5656 5658
5728 5728 5724 5719 5712 5705 5704 5695 5703 5700 5701 5698 5693 5690 5687 5685 5688 5683 5686 5685 5684 5681 5679 5678 5677 5677 5675 5673 5672 5672 5669 5661 5658 5656 5656 5655 5656 5658 5658 5653 5652 5649 5647
5718 5719 5715 5709 5707 5694 5682 5691 5692 5693 5695 5693 5689 5684 5682 5682 5682 5683 5682 5682 5680 5678 5676 5674 5674 5674 5672 5670 5669 5668 5667 5663 5660 5657 5652 5649 5651 5654 5655 5655 5652 5648 5646
5710 5710 5710 5701 5696 5694 5690 5688 5687 5689 5691 5688 5685 5679 5677 5679 5679 5678 5679 5677 5676 5673 5674 5673 5671 5670 5669 5668 5665 5662 5660 5659 5657 5654 5652 5653 5654 5657 5656 5655 5652 5650 5648
5702 5705 5704 5701 5693 5688 5685 5686 5686 5686 5684 5682 5680 5679 5677 5680 5676 5676 5676 5672 5669 5667 5670 5670 5670 5669 5668 5667 5661 5656 5654 5655 5655 5653 5654 5655 5657 5659 5657 5654 5648 5644 5641
5698 5698 5698 5696 5694 5689 5682 5678 5681 5682 5681 5679 5677 5677 5676 5672 5671 5672 5670 5666 5662 5662 5664 5665 5670 5672 5669 5666 5659 5653 5650 5651 5651 5652 5650 5652 5654 5656 5657 5654 5650 5643 5639
5700 5695 5691 5687 5684 5685 5684 5683 5680 5676 5677 5673 5672 5673 5672 5671 5668 5667 5665 5663 5661 5658 5658 5661 5667 5668 5666 5663 5660 5655 5654 5655 5652 5649 5649 5650 5653 5656 5657 5657 5655 5652 5646
5699 5691 5689 5688 5686 5683 5678 5675 5675 5675 5672 5669 5669 5668 5668 5669 5668 5665 5665 5663 5662 5658 5656 5657 5659 5662 5661 5658 5656 5657 5656 5652 5647 5645 5645 5647 5649 5652 5657 5659 5660 5659 5660
5696 5691 5688 5686 5684 5683 5679 5674 5672 5673 5669 5668 5667 5665 5666 5669 5667 5667 5664 5661 5659 5655 5656 5656 5655 5653 5654 5653 5655 5654 5651 5645 5642 5641 5642 5645 5650 5655 5657 5658 5661 5661 5660
5693 5687 5685 5684 5680 5679 5678 5675 5672 5670 5668 5667 5666 5666 5667 5668 5667 5667 5663 5658 5654 5651 5650 5649 5648 5648 5650 5649 5647 5645 5644 5643 5642 5642 5643 5648 5650 5650 5650 5652 5654 5657 5656
5690 5686 5682 5682 5678 5675 5676 5675 5673 5674 5674 5670 5670 5670 5668 5665 5668 5669 5665 5659 5655 5653 5648 5644 5643 5642 5641 5641 5641 5641 5641 5640 5640 5642 5641 5643 5645 5645 5646 5647 5647 5646 5644
5689 5686 5683 5679 5678 5676 5675 5672 5676 5677 5676 5674 5673 5673 5673 5672 5669 5667 5664 5660 5657 5651 5641 5639 5639 5639 5638 5637 5637 5638 5640 5641 5640 5640 5643 5646 5646 5645 5645 5643 5641 5638 5636
5691 5686 5683 5680 5678 5676 5676 5675 5670 5674 5670 5669 5669 5671 5667 5665 5660 5660 5660 5658 5654 5645 5641 5639 5637 5635 5636 5637 5637 5637 5638 5638 5642 5644 5644 5646 5646 5646 5641 5640 5638 5636 5632
5691 5689 5685 5681 5680 5678 5678 5677 5675 5671 5667 5670 5670 5667 5664 5661 5659 5655 5649 5646 5639 5638 5640 5639 5635 5633 5632 5633 5634 5634 5636 5637 5640 5642 5643 5645 5645 5643 5640 5638 5634 5632 5631
5693 5692 5689 5685 5683 5681 5681 5680 5675 5671 5668 5668 5669 5667 5667 5663 5656 5650 5643 5644 5641 5637 5632 5632 5636 5635 5633 5633 5636 5636 5636 5637 5638 5642 5649 5650 5647 5641 5638 5635 5632 5628 5626
5694 5693 5690 5686 5683 5683 5682 5678 5675 5673 5670 5667 5668 5668 5668 5656 5647 5642 5641 5643 5639 5641 5638 5634 5636 5634 5635 5636 5635 5634 5631 5628 5632 5636 5638 5639 5641 5641 5641 5638 5628 5625 5622
5693 5691 5689 5690 5688 5685 5681 5676 5674 5671 5670 5669 5670 5669 5667 5663 5662 5657 5652 5647 5645 5642 5641 5639 5638 5636 5638 5638 5635 5633 5631 5629 5631 5632 5632 5636 5634 5635 5636 5634 5632 5627 5621
5693 5689 5688 5679 5683 5682 5680 5681 5676 5674 5672 5668 5669 5670 5661 5660 5661 5660 5656 5654 5652 5648 5644 5642 5640 5640 5643 5640 5635 5631 5631 5632 5628 5625 5618 5617 5622 5621 5626 5627 5624 5623 5619
5687 5689 5687 5675 5680 5683 5684 5681 5676 5673 5668 5668 5666 5665 5662 5660 5658 5656 5654 5654 5654 5652 5649 5646 5645 5644 5643 5642 5643 5641 5638 5631 5627 5627 5616 5608 5614 5617 5618 5620 5624 5620 5618
5670 5681 5687 5679 5680 5684 5686 5680 5677 5668 5663 5662 5664 5664 5666 5662 5661 5659 5657 5657 5655 5657 5653 5651 5650 5652 5646 5643 5641 5637 5630 5624 5623 5618 5615 5618 5622 5623 5614 5620 5620 5622 5621
5682 5680 5684 5686 5686 5686 5680 5676 5672 5670 5674 5674 5672 5672 5670 5667 5664 5662 5660 5660 5659 5657 5656 5654 5653 5653 5651 5645 5642 5641 5640 5634 5626 5623 5616 5617 5619 5618 5614 5608 5599 5607 5605
5689 5690 5689 5689 5687 5680 5675 5676 5678 5678 5677 5674 5677 5676 5670 5662 5661 5661 5661 5658 5654 5650 5646 5643 5640 5643 5640 5645 5642 5639 5636 5637 5640 5635 5619 5612 5613 5611 5606 5602 5589 5582 5581